Snow/Ice From: 19-11-2018 16:00 Until: 20-11-2018 16:00 warning for: Snow/Ice Level: Yellow info button

Although rather usual in this region, locally or potentially dangerous phenomena are expected. (such as local winds, summer thunderstorms, rising streams or high waves) Be aware and pay attention to the latest weather updates, especially if you carry out activities exposed to weather or close to a stream or shoreline. 

Meteo18 Weather Cam more information Meteo18 Weather Cam


Thunder radar more information blitzortung!


warning for Snow/Ice more information rain snow radar



Select another period ( hide this area )

Units Period Custom range Directly to
Metric English Both
Daily Weekly Monthly Yearly
use both date-selectors for a custom range
previous Day
With this date

WeatherUnderground graphs for this period ( click here )


Daily Summary for Monday 19 November 2018
Time Temp. ( °C ) Dew pt. ( °C ) Wind ( km/h ) from Gust ( km/h ) Pressure ( hPa ) Humid.( % ) Rainrate ( cm )
High4,4 0,8 28,8 NE ( 784/1768 ) 43,5 1016,1 88 -
Average1,9 -1,4 10,0 NE #113/285 17,5 1009,0 79 -
Low-0,7 -3,9 -   4,8 1003,9 66 -
Daily Tabular details for Monday 19 November 2018
Time Temp. ( °C ) Dew pt. ( °C ) Wind ( km/h ) from Gust ( km/h ) Pressure ( hPa ) Humid.( % ) Rainrate ( cm )
00:04 1,7 -0,7 1,4 ENE 6,4 1016,1 84 -
00:08 1,4 -0,8 4,7 North 11,3 1016,1 85 -
00:14 1,2 -1,0   Calm 4,8 1016,1 85 -
00:18 1,1 -1,0 6,4 NNW 6,4 1015,8 86 -
00:24 1,1 -1,0 4,7 North 11,3 1015,5 86 -
00:28 1,1 -1,0 3,2 NNE 6,4 1015,5 86 -
00:34 1,1 -1,0 6,4 NNE 6,4 1015,1 86 -
00:38 1,0 -0,9   Calm 8,0 1015,1 87 -
00:44 1,1 -0,8 6,4 North 9,7 1015,1 87 -
00:48 1,1 -0,8 13,0 ENE 14,5 1015,1 87 -
00:54 1,3 -0,8 3,2 NNW 12,9 1015,1 86 -
00:58 1,3 -0,9 1,4 NE 11,3 1015,1 85 -
01:04 1,2 -1,0 7,9 NE 12,9 1015,1 85 -
01:08 1,2 -1,0 4,7 NNE 11,3 1015,1 85 -
01:14 1,2 -1,0 7,9 NE 14,5 1015,1 85 -
01:18 1,3 -0,9 3,2 NNE 12,9 1015,1 85 -
01:24 1,3 -1,1 4,7 North 11,3 1015,1 84 -
01:28 1,3 -1,1 7,9 NE 8,0 1015,1 84 -
01:32 1,4 -1,0 4,7 NE 12,9 1015,1 84 -
01:38 1,3 -1,1 3,2 NE 9,7 1015,1 84 -
01:44 1,2 -1,0 9,7 North 11,3 1014,8 85 -
01:48 1,2 -1,0 4,7 NNE 12,9 1014,8 85 -
01:54 1,2 -1,2 7,9 North 11,3 1014,8 84 -
01:58 1,2 -1,2 4,7 NE 9,7 1014,8 84 -
02:04 1,2 -1,2 4,7 NE 9,7 1014,4 84 -
02:08 1,1 -1,3 4,7 NNE 9,7 1014,4 84 -
02:14 0,9 -1,3 4,7 ENE 9,7 1014,4 85 -
02:18 0,9 -1,3 4,7 North 12,9 1014,4 85 -
02:24 1,0 -1,2 3,2 NNE 16,1 1014,4 85 -
02:28 1,0 -1,2 11,1 NE 14,5 1014,4 85 -
02:34 1,1 -1,3 13,0 NE 17,7 1014,4 84 -
02:38 1,0 -1,4 3,2 NNW 11,3 1014,4 84 -
02:44 0,9 -1,3 3,2 NNE 11,3 1014,4 85 -
02:48 0,8 -1,4 9,7 NNE 16,1 1014,1 85 -
02:54 0,8 -1,4 6,4 NNE 14,5 1014,1 85 -
02:58 0,7 -1,5 6,4 NE 9,7 1014,1 85 -
03:04 0,7 -1,5 3,2 ENE 9,7 1014,1 85 -
03:08 0,6 -1,6 4,7 NE 9,7 1013,8 85 -
03:14 0,4 -1,7 4,7 NNE 6,4 1013,8 86 -
03:18 0,4 -1,7 7,9 North 12,9 1013,8 86 -
03:24 0,4 -1,7 3,2 North 6,4 1013,8 86 -
03:28 0,4 -1,7 6,4 NNE 8,0 1013,4 86 -
03:34 0,4 -1,7 1,4 NNE 11,3 1013,4 86 -
03:38 0,4 -1,7 4,7 North 9,7 1013,4 86 -
03:44 0,4 -1,7 4,7 NE 12,9 1013,4 86 -
03:48 0,4 -1,7 4,7 North 8,0 1013,4 86 -
03:54 0,4 -1,7 6,4 NE 9,7 1013,4 86 -
03:58 0,4 -1,7 7,9 North 8,0 1013,1 86 -
04:04 0,3 -1,8 3,2 ENE 14,5 1013,1 86 -
04:08 0,3 -1,8 1,4 NE 8,0 1013,1 86 -
04:14 0,3 -1,8 3,2 ENE 11,3 1013,1 86 -
04:18 0,3 -1,8 1,4 NE 14,5 1013,1 86 -
04:24 0,3 -1,8   Calm 11,3 1012,8 86 -
04:28 0,3 -1,8 6,4 NE 14,5 1012,8 86 -
04:34 0,2 -1,9 7,9 NNE 14,5 1012,8 86 -
04:38 0,2 -1,9 11,1 NE 20,9 1012,8 86 -
04:44 0,2 -1,9 4,7 North 11,3 1012,8 86 -
04:48 0,2 -1,9 1,4 North 12,9 1012,8 86 -
04:54 0,1 -1,8   Calm 12,9 1012,8 87 -
04:58 0,0 -1,9 1,4 NE 12,9 1012,8 87 -
05:04 -0,1 -2,0 3,2 North 9,7 1012,8 87 -
05:08 -0,1 -2,0   Calm 8,0 1012,8 87 -
05:14 -0,1 -2,0 6,4 NNE 16,1 1012,8 87 -
05:18 -0,1 -2,0 6,4 NNE 14,5 1012,8 87 -
05:24 0,0 -2,1 9,7 NE 16,1 1012,8 86 -
05:28 -0,1 -2,2 7,9 NNE 12,9 1012,8 86 -
05:34 -0,1 -2,2 4,7 NNE 12,9 1012,8 86 -
05:38 -0,1 -2,2 7,9 NNW 11,3 1012,8 86 -
05:44 -0,2 -2,1 11,1 NW 16,1 1012,8 87 -
05:48 -0,2 -2,1 3,2 East 11,3 1012,8 87 -
05:54 -0,3 -2,2 6,4 North 12,9 1012,4 87 -
05:58 -0,4 -2,3 1,4 ESE 16,1 1012,4 87 -
06:04 -0,4 -2,3 7,9 NE 12,9 1012,4 87 -
06:08 -0,5 -2,2   Calm 12,9 1012,4 88 -
06:14 -0,6 -2,3 4,7 North 11,3 1012,4 88 -
06:18 -0,6 -2,3 1,4 NE 17,7 1012,4 88 -
06:24 -0,6 -2,3 3,2 NE 16,1 1012,1 88 -
06:28 -0,7 -2,4 6,4 NNE 11,3 1012,1 88 -
06:34 -0,7 -2,4 3,2 NNE 9,7 1012,1 88 -
06:38 -0,7 -2,4 1,4 NW 9,7 1012,1 88 -
06:44 -0,6 -2,3 4,7 NE 12,9 1012,1 88 -
06:48 -0,5 -2,4 1,4 NE 8,0 1012,1 87 -
06:54 -0,5 -2,6 3,2 NNE 11,3 1012,1 86 -
06:58 -0,5 -2,6 3,2 WNW 9,7 1011,7 86 -
07:04 -0,4 -2,5 4,7 NE 9,7 1011,7 86 -
07:08 -0,4 -2,5 7,9 NNE 12,9 1011,7 86 -
07:14 -0,4 -2,6 7,9 North 12,9 1012,1 85 -
07:18 -0,4 -2,6 4,7 NNW 12,9 1012,1 85 -
07:24 -0,3 -2,5 19,5 NE 19,3 1011,7 85 -
07:28 -0,2 -2,6 9,7 NNE 16,1 1011,7 84 -
07:34 -0,2 -2,6 13,0 NE 17,7 1011,7 84 -
07:38 -0,2 -2,7 16,3 NNE 16,1 1011,7 83 -
07:44 -0,2 -2,7 9,7 NNE 17,7 1011,7 83 -
07:48 -0,2 -2,7 9,7 NNE 19,3 1011,7 83 -
07:54 -0,2 -2,7 9,7 NNE 17,7 1011,7 83 -
07:58 -0,3 -2,8 7,9 NE 11,3 1011,7 83 -
08:04 -0,4 -2,8 9,7 NNE 12,9 1011,7 84 -
08:08 -0,6 -3,0 9,7 ENE 12,9 1011,7 84 -
08:14 -0,6 -3,0 6,4 NNE 17,7 1011,7 84 -
08:18 -0,7 -2,9 3,2 NNW 14,5 1011,7 85 -
08:24 -0,7 -3,1 4,7 ENE 24,1 1011,7 84 -
08:28 -0,6 -3,1 19,5 NE 20,9 1011,7 83 -
08:34 -0,3 -3,0 9,7 NE 20,9 1011,7 82 -
08:38 -0,3 -3,2 19,5 ENE 29,0 1011,7 81 -
08:44 -0,2 -3,2 13,0 NNE 19,3 1011,7 80 -
08:48 -0,2 -3,2 22,7 ENE 22,5 1011,7 80 -
08:54 -0,1 -3,3 19,5 NE 22,5 1011,7 79 -
08:58 -0,1 -3,3 19,5 NNE 24,1 1011,7 79 -
09:04 0,0 -3,4 19,5 NE 22,5 1011,7 78 -
09:08 0,1 -3,3 4,7 North 17,7 1011,7 78 -
09:14 0,1 -3,5 24,1 NNE 27,4 1011,7 77 -
09:18 0,2 -3,4 16,3 NNE 19,3 1011,7 77 -
09:24 0,2 -3,4 7,9 ENE 16,1 1011,7 77 -
09:28 0,2 -3,5 19,5 NNE 20,9 1011,7 76 -
09:34 0,3 -3,3 16,3 NNE 16,1 1011,7 77 -
09:38 0,3 -3,4 6,4 North 17,7 1011,7 76 -
09:44 0,4 -3,5 11,1 North 16,1 1011,7 75 -
09:48 0,4 -3,5 19,5 NE 22,5 1011,7 75 -
09:54 0,5 -3,4 6,4 ENE 16,1 1011,7 75 -
09:58 0,6 -3,5 17,7 NNE 17,7 1011,7 74 -
10:04 0,6 -3,7 16,3 ENE 17,7 1011,7 73 -
10:08 0,7 -3,4 22,7 NE 22,5 1011,4 74 -
10:14 0,7 -3,4 7,9 ENE 22,5 1011,7 74 -
10:18 0,8 -3,3 13,0 NE 19,3 1011,4 74 -
10:24 0,9 -3,4 19,5 North 20,9 1011,4 73 -
10:28 1,0 -3,3 6,4 NNW 19,3 1011,4 73 -
10:32 1,1 -3,4 17,7 NE 24,1 1011,4 72 -
10:39 1,1 -3,6 7,9 NW 24,1 1011,4 71 -
10:43 1,2 -3,5 7,9 ENE 20,9 1011,4 71 -
10:49 1,3 -3,4 9,7 NE 16,1 1011,4 71 -
10:53 1,3 -3,6 13,0 ENE 16,1 1011,4 70 -
10:59 1,4 -3,5 13,0 NNE 19,3 1011,4 70 -
11:03 1,4 -3,3 6,4 NNE 14,5 1011,4 71 -
11:09 1,4 -3,7 14,3 NNE 20,9 1011,1 69 -
11:13 1,4 -3,7 20,9 NE 25,7 1011,1 69 -
11:19 1,4 -3,9 7,9 ENE 20,9 1011,1 68 -
11:23 1,6 -3,5 4,7 NE 17,7 1010,7 69 -
11:29 1,6 -3,5 3,2 NNE 17,7 1010,7 69 -
11:33 1,7 -3,4 3,2 ENE 16,1 1010,7 69 -
11:39 1,8 -3,3 11,1 ENE 20,9 1010,7 69 -
11:43 1,9 -3,2 13,0 NE 20,9 1010,7 69 -
11:49 1,9 -3,2 3,2 ENE 17,7 1010,7 69 -
11:53 2,0 -3,3 11,1 NE 22,5 1010,4 68 -
11:59 2,2 -3,3 6,4 NNE 19,3 1010,4 67 -
12:03 2,2 -3,1 14,3 NNE 16,1 1010,0 68 -
12:09 2,3 -3,2 14,3 NNE 24,1 1010,0 67 -
12:13 2,4 -2,9 13,0 NNE 16,1 1010,0 68 -
12:19 2,6 -2,7 3,2 North 19,3 1010,0 68 -
12:23 2,8 -2,5 6,4 NE 19,3 1010,0 68 -
12:29 2,8 -2,7 14,3 NNE 19,3 1009,7 67 -
12:33 2,8 -2,5 16,3 North 19,3 1009,7 68 -
12:39 2,8 -2,9 20,9 NE 27,4 1009,7 66 -
12:43 2,8 -2,5 1,4 North 19,3 1009,7 68 -
12:49 2,9 -2,6 13,0 NNE 29,0 1009,7 67 -
12:53 2,9 -2,6 14,3 ENE 22,5 1009,7 67 -
12:59 2,9 -2,6 6,4 NNE 20,9 1009,4 67 -
13:03 3,1 -2,4 13,0 NE 25,7 1009,4 67 -
13:09 3,2 -2,1 6,4 NE 19,3 1009,4 68 -
13:13 3,2 -2,1 17,7 ENE 27,4 1009,4 68 -
13:19 3,2 -2,1 20,9 NE 30,6 1009,0 68 -
13:23 3,2 -2,5 28,8 ENE 29,0 1009,0 66 -
13:29 3,2 -2,3 17,7 NNE 33,8 1009,0 67 -
13:33 3,3 -1,8 24,1 North 27,4 1009,0 69 -
13:39 3,4 -1,7 17,7 NE 27,4 1009,0 69 -
13:43 3,4 -1,7 24,1 ENE 30,6 1009,0 69 -
13:49 3,3 -2,2 28,8 ENE 32,2 1009,0 67 -
13:53 3,4 -1,7 24,1 NE 29,0 1009,0 69 -
13:59 3,6 -1,8 20,9 NE 30,6 1008,7 68 -
14:03 3,7 -1,7 24,1 NE 29,0 1008,7 68 -
14:09 3,8 -1,4 6,4 North 25,7 1008,7 69 -
14:13 3,8 -1,6 28,8 NE 29,0 1008,7 68 -
14:19 3,8 -1,4 24,1 NE 29,0 1008,4 69 -
14:23 3,8 -1,6 19,5 NE 27,4 1008,7 68 -
14:29 3,9 -1,3 16,3 NE 27,4 1008,4 69 -
14:33 3,9 -1,5 24,1 ENE 33,8 1008,4 68 -
14:39 3,9 -1,5 22,7 NE 25,7 1008,4 68 -
14:43 3,9 -1,3 22,7 NNE 37,0 1008,4 69 -
14:49 3,9 -1,3 27,4 NNE 33,8 1008,4 69 -
14:53 4,0 -1,0 16,3 NE 32,2 1008,4 70 -
14:59 4,1 -1,1 28,8 NE 43,5 1008,0 69 -
15:03 4,1 -0,9 13,0 NE 30,6 1008,0 70 -
15:09 4,1 -1,1 16,3 NE 29,0 1008,0 69 -
15:13 4,3 -0,9 9,7 ENE 25,7 1008,0 69 -
15:19 4,4 -0,8 22,7 NE 29,0 1008,0 69 -
15:23 4,4 -1,0 19,5 NE 25,7 1008,0 68 -
15:29 4,4 -1,0 19,5 ENE 29,0 1008,0 68 -
15:33 4,4 -1,0 11,1 NE 22,5 1008,0 68 -
15:39 4,4 -1,0 17,7 NE 25,7 1007,7 68 -
15:43 4,4 -1,0 14,3 NE 20,9 1007,7 68 -
15:49 4,3 -1,1 14,3 NE 17,7 1007,7 68 -
15:53 4,3 -0,9 14,3 NE 17,7 1007,7 69 -
15:59 4,3 -0,9 9,7 NE 19,3 1007,3 69 -
16:03 4,3 -0,9 13,0 NNE 19,3 1007,3 69 -
16:09 4,3 -0,9 6,4 North 19,3 1007,3 69 -
16:13 4,3 -1,1 9,7 NE 22,5 1007,3 68 -
16:19 4,4 -0,8 14,3 NNE 14,5 1007,3 69 -
16:23 4,4 -0,8 9,7 NE 19,3 1007,3 69 -
16:29 4,3 -0,9 17,7 NNE 25,7 1007,3 69 -
16:33 4,3 -0,7 16,3 NE 22,5 1007,3 70 -
16:39 4,3 -0,7 17,7 North 22,5 1007,3 70 -
16:43 4,2 -0,8 14,3 NNW 25,7 1007,3 70 -
16:49 4,2 -0,8 7,9 NE 30,6 1007,3 70 -
16:53 4,1 -0,9 17,7 NNE 29,0 1007,3 70 -
16:59 4,1 -0,9 17,7 NE 27,4 1007,3 70 -
17:03 4,1 -0,9 11,1 NNE 25,7 1007,0 70 -
17:09 4,1 -0,7 11,1 NNE 17,7 1007,0 71 -
17:13 4,0 -0,8 4,7 West 14,5 1007,3 71 -
17:19 3,9 -0,7 24,1 North 24,1 1007,0 72 -
17:23 3,9 -0,7 17,7 NNE 27,4 1007,0 72 -
17:29 3,9 -0,5 3,2 NW 22,5 1007,0 73 -
17:33 3,8 -0,6 17,7 NE 20,9 1006,7 73 -
17:39 3,8 -0,4 11,1 NE 19,3 1006,7 74 -
17:43 3,8 -0,4 16,3 NNE 22,5 1006,7 74 -
17:49 3,8 -0,4 14,3 NNE 17,7 1006,7 74 -
17:53 3,7 -0,5 9,7 NNE 22,5 1006,3 74 -
17:59 3,7 -0,5 19,5 NNE 20,9 1006,3 74 -
18:03 3,8 -0,4 7,9 ENE 22,5 1006,3 74 -
18:09 3,7 -0,3 4,7 East 16,1 1006,3 75 -
18:13 3,8 -0,2 11,1 NE 19,3 1006,3 75 -
18:19 3,8 -0,2 9,7 NNE 24,1 1006,3 75 -
18:23 3,8 -0,2 14,3 NNE 17,7 1006,3 75 -
18:29 3,7 -0,1 4,7 NNE 24,1 1006,3 76 -
18:33 3,7 -0,1 7,9 NE 20,9 1006,3 76 -
18:39 3,7 0,0 3,2 ENE 14,5 1006,3 77 -
18:43 3,7 0,2 7,9 North 12,9 1006,3 78 -
18:49 3,6 0,1 19,5 NNE 19,3 1006,0 78 -
18:53 3,6 0,1 14,3 NE 27,4 1006,0 78 -
18:57 3,6 0,1 13,0 NNE 20,9 1006,0 78 -
19:03 3,7 0,2 11,1 NE 16,1 1006,0 78 -
19:09 3,6 0,1 6,4 NE 14,5 1006,0 78 -
19:13 3,6 0,1 4,7 North 16,1 1006,0 78 -
19:19 3,6 0,1 16,3 NE 16,1 1005,6 78 -
19:23 3,6 0,3 11,1 NE 19,3 1005,6 79 -
19:29 3,4 0,4 9,7 NE 9,7 1006,0 81 -
19:33 3,3 0,5 1,4 NE 6,4 1005,6 82 -
19:37 3,2 0,6 7,9 NE 9,7 1005,6 83 -
19:43 3,1 0,7 3,2 NNE 6,4 1005,6 84 -
19:49 3,1 0,7 1,4 NE 6,4 1005,6 84 -
19:53 3,1 0,7 4,7 NE 19,3 1005,6 84 -
19:57 3,2 0,6 14,3 NE 14,5 1005,6 83 -
20:03 3,3 0,7 3,2 NE 16,1 1005,6 83 -
20:09 3,3 0,5 9,7 NNE 16,1 1005,6 82 -
20:14 3,3 0,7   Calm 9,7 1005,3 83 -
20:18 3,3 0,7 3,2 NE 12,9 1005,3 83 -
20:24 3,3 0,7 3,2 NE 9,7 1005,3 83 -
20:28 3,3 0,7 4,7 NE 12,9 1005,3 83 -
20:34 3,2 0,8 4,7 NNE 12,9 1005,3 84 -
20:38 3,2 0,8 1,4 North 8,0 1005,0 84 -
20:44 3,2 0,8 7,9 NNE 11,3 1005,0 84 -
20:48 3,2 0,8 11,1 NNE 14,5 1005,0 84 -
20:54 3,2 0,8 11,1 NNE 19,3 1005,0 84 -
20:58 3,2 0,8 14,3 NNE 14,5 1005,0 84 -
21:04 3,2 0,8 13,0 NE 14,5 1005,0 84 -
21:08 3,2 0,6 6,4 NNE 19,3 1004,6 83 -
21:14 3,2 0,6 19,5 NE 19,3 1004,6 83 -
21:18 3,3 0,7 11,1 NNE 20,9 1004,6 83 -
21:24 3,2 0,6 7,9 NE 19,3 1004,6 83 -
21:28 3,2 0,6 4,7 NE 16,1 1004,6 83 -
21:34 3,2 0,6 6,4 ENE 17,7 1004,6 83 -
21:38 3,2 0,6 9,7 NW 16,1 1004,6 83 -
21:44 3,2 0,6 4,7 NE 11,3 1004,6 83 -
21:48 3,1 0,5 11,1 NNE 16,1 1004,6 83 -
21:54 3,1 0,5 4,7 NE 16,1 1004,6 83 -
21:58 3,1 0,5 9,7 NE 12,9 1004,6 83 -
22:04 3,1 0,5 11,1 NNE 20,9 1004,3 83 -
22:08 3,1 0,3 3,2 NE 16,1 1004,3 82 -
22:14 3,1 0,3 6,4 NE 22,5 1004,3 82 -
22:18 3,1 0,3 20,9 NE 20,9 1004,3 82 -
22:24 3,1 0,3 7,9 NNE 17,7 1004,3 82 -
22:28 3,1 0,3 6,4 NE 19,3 1004,3 82 -
22:34 3,0 0,4 7,9 ENE 12,9 1004,3 83 -
22:38 2,9 0,3 7,9 NE 17,7 1004,3 83 -
22:44 2,9 0,3 6,4 NNE 11,3 1004,3 83 -
22:48 2,9 0,3 7,9 NE 16,1 1003,9 83 -
22:54 2,9 0,3 9,7 NE 12,9 1003,9 83 -
22:58 2,9 0,3 9,7 ENE 12,9 1003,9 83 -
23:04 2,9 0,3 11,1 NE 12,9 1003,9 83 -
23:08 2,9 0,3 7,9 NE 11,3 1003,9 83 -
23:14 2,8 0,2 7,9 NE 17,7 1003,9 83 -
23:18 2,8 0,0 3,2 ENE 22,5 1003,9 82 -
23:24 2,8 0,0 13,0 NE 19,3 1003,9 82 -
23:28 2,8 0,2 6,4 NE 12,9 1003,9 83 -
23:34 2,8 0,2 7,9 NE 9,7 1003,9 83 -
23:38 2,8 0,2 13,0 NNE 14,5 1003,9 83 -
23:44 2,8 0,2 11,1 NE 22,5 1003,9 83 -
Daily Summary for Monday 19 November 2018
Time Temp. ( °C ) Dew pt. ( °C ) Wind ( km/h ) from Gust ( km/h ) Pressure ( hPa ) Humid.( % ) Rainrate ( cm )
High4,4 0,8 28,8 NE ( 784/1768 ) 43,5 1016,1 88 -
Average1,9 -1,4 10,0 NE #113/285 17,5 1009,0 79 -
Low-0,7 -3,9 -   4,8 1003,9 66 -
Daily Tabular details for Monday 19 November 2018
Time Temp. ( °C ) Dew pt. ( °C ) Wind ( km/h ) from Gust ( km/h ) Pressure ( hPa ) Humid.( % ) Rainrate ( cm )
00:04 1,7 -0,7 1,4 ENE 6,4 1016,1 84 -
00:08 1,4 -0,8 4,7 North 11,3 1016,1 85 -
00:14 1,2 -1,0   Calm 4,8 1016,1 85 -
00:18 1,1 -1,0 6,4 NNW 6,4 1015,8 86 -
00:24 1,1 -1,0 4,7 North 11,3 1015,5 86 -
00:28 1,1 -1,0 3,2 NNE 6,4 1015,5 86 -
00:34 1,1 -1,0 6,4 NNE 6,4 1015,1 86 -
00:38 1,0 -0,9   Calm 8,0 1015,1 87 -
00:44 1,1 -0,8 6,4 North 9,7 1015,1 87 -
00:48 1,1 -0,8 13,0 ENE 14,5 1015,1 87 -
00:54 1,3 -0,8 3,2 NNW 12,9 1015,1 86 -
00:58 1,3 -0,9 1,4 NE 11,3 1015,1 85 -
01:04 1,2 -1,0 7,9 NE 12,9 1015,1 85 -
01:08 1,2 -1,0 4,7 NNE 11,3 1015,1 85 -
01:14 1,2 -1,0 7,9 NE 14,5 1015,1 85 -
01:18 1,3 -0,9 3,2 NNE 12,9 1015,1 85 -
01:24 1,3 -1,1 4,7 North 11,3 1015,1 84 -
01:28 1,3 -1,1 7,9 NE 8,0 1015,1 84 -
01:32 1,4 -1,0 4,7 NE 12,9 1015,1 84 -
01:38 1,3 -1,1 3,2 NE 9,7 1015,1 84 -
01:44 1,2 -1,0 9,7 North 11,3 1014,8 85 -
01:48 1,2 -1,0 4,7 NNE 12,9 1014,8 85 -
01:54 1,2 -1,2 7,9 North 11,3 1014,8 84 -
01:58 1,2 -1,2 4,7 NE 9,7 1014,8 84 -
02:04 1,2 -1,2 4,7 NE 9,7 1014,4 84 -
02:08 1,1 -1,3 4,7 NNE 9,7 1014,4 84 -
02:14 0,9 -1,3 4,7 ENE 9,7 1014,4 85 -
02:18 0,9 -1,3 4,7 North 12,9 1014,4 85 -
02:24 1,0 -1,2 3,2 NNE 16,1 1014,4 85 -
02:28 1,0 -1,2 11,1 NE 14,5 1014,4 85 -
02:34 1,1 -1,3 13,0 NE 17,7 1014,4 84 -
02:38 1,0 -1,4 3,2 NNW 11,3 1014,4 84 -
02:44 0,9 -1,3 3,2 NNE 11,3 1014,4 85 -
02:48 0,8 -1,4 9,7 NNE 16,1 1014,1 85 -
02:54 0,8 -1,4 6,4 NNE 14,5 1014,1 85 -
02:58 0,7 -1,5 6,4 NE 9,7 1014,1 85 -
03:04 0,7 -1,5 3,2 ENE 9,7 1014,1 85 -
03:08 0,6 -1,6 4,7 NE 9,7 1013,8 85 -
03:14 0,4 -1,7 4,7 NNE 6,4 1013,8 86 -
03:18 0,4 -1,7 7,9 North 12,9 1013,8 86 -
03:24 0,4 -1,7 3,2 North 6,4 1013,8 86 -
03:28 0,4 -1,7 6,4 NNE 8,0 1013,4 86 -
03:34 0,4 -1,7 1,4 NNE 11,3 1013,4 86 -
03:38 0,4 -1,7 4,7 North 9,7 1013,4 86 -
03:44 0,4 -1,7 4,7 NE 12,9 1013,4 86 -
03:48 0,4 -1,7 4,7 North 8,0 1013,4 86 -
03:54 0,4 -1,7 6,4 NE 9,7 1013,4 86 -
03:58 0,4 -1,7 7,9 North 8,0 1013,1 86 -
04:04 0,3 -1,8 3,2 ENE 14,5 1013,1 86 -
04:08 0,3 -1,8 1,4 NE 8,0 1013,1 86 -
04:14 0,3 -1,8 3,2 ENE 11,3 1013,1 86 -
04:18 0,3 -1,8 1,4 NE 14,5 1013,1 86 -
04:24 0,3 -1,8   Calm 11,3 1012,8 86 -
04:28 0,3 -1,8 6,4 NE 14,5 1012,8 86 -
04:34 0,2 -1,9 7,9 NNE 14,5 1012,8 86 -
04:38 0,2 -1,9 11,1 NE 20,9 1012,8 86 -
04:44 0,2 -1,9 4,7 North 11,3 1012,8 86 -
04:48 0,2 -1,9 1,4 North 12,9 1012,8 86 -
04:54 0,1 -1,8   Calm 12,9 1012,8 87 -
04:58 0,0 -1,9 1,4 NE 12,9 1012,8 87 -
05:04 -0,1 -2,0 3,2 North 9,7 1012,8 87 -
05:08 -0,1 -2,0   Calm 8,0 1012,8 87 -
05:14 -0,1 -2,0 6,4 NNE 16,1 1012,8 87 -
05:18 -0,1 -2,0 6,4 NNE 14,5 1012,8 87 -
05:24 0,0 -2,1 9,7 NE 16,1 1012,8 86 -
05:28 -0,1 -2,2 7,9 NNE 12,9 1012,8 86 -
05:34 -0,1 -2,2 4,7 NNE 12,9 1012,8 86 -
05:38 -0,1 -2,2 7,9 NNW 11,3 1012,8 86 -
05:44 -0,2 -2,1 11,1 NW 16,1 1012,8 87 -
05:48 -0,2 -2,1 3,2 East 11,3 1012,8 87 -
05:54 -0,3 -2,2 6,4 North 12,9 1012,4 87 -
05:58 -0,4 -2,3 1,4 ESE 16,1 1012,4 87 -
06:04 -0,4 -2,3 7,9 NE 12,9 1012,4 87 -
06:08 -0,5 -2,2   Calm 12,9 1012,4 88 -
06:14 -0,6 -2,3 4,7 North 11,3 1012,4 88 -
06:18 -0,6 -2,3 1,4 NE 17,7 1012,4 88 -
06:24 -0,6 -2,3 3,2 NE 16,1 1012,1 88 -
06:28 -0,7 -2,4 6,4 NNE 11,3 1012,1 88 -
06:34 -0,7 -2,4 3,2 NNE 9,7 1012,1 88 -
06:38 -0,7 -2,4 1,4 NW 9,7 1012,1 88 -
06:44 -0,6 -2,3 4,7 NE 12,9 1012,1 88 -
06:48 -0,5 -2,4 1,4 NE 8,0 1012,1 87 -
06:54 -0,5 -2,6 3,2 NNE 11,3 1012,1 86 -
06:58 -0,5 -2,6 3,2 WNW 9,7 1011,7 86 -
07:04 -0,4 -2,5 4,7 NE 9,7 1011,7 86 -
07:08 -0,4 -2,5 7,9 NNE 12,9 1011,7 86 -
07:14 -0,4 -2,6 7,9 North 12,9 1012,1 85 -
07:18 -0,4 -2,6 4,7 NNW 12,9 1012,1 85 -
07:24 -0,3 -2,5 19,5 NE 19,3 1011,7 85 -
07:28 -0,2 -2,6 9,7 NNE 16,1 1011,7 84 -
07:34 -0,2 -2,6 13,0 NE 17,7 1011,7 84 -
07:38 -0,2 -2,7 16,3 NNE 16,1 1011,7 83 -
07:44 -0,2 -2,7 9,7 NNE 17,7 1011,7 83 -
07:48 -0,2 -2,7 9,7 NNE 19,3 1011,7 83 -
07:54 -0,2 -2,7 9,7 NNE 17,7 1011,7 83 -
07:58 -0,3 -2,8 7,9 NE 11,3 1011,7 83 -
08:04 -0,4 -2,8 9,7 NNE 12,9 1011,7 84 -
08:08 -0,6 -3,0 9,7 ENE 12,9 1011,7 84 -
08:14 -0,6 -3,0 6,4 NNE 17,7 1011,7 84 -
08:18 -0,7 -2,9 3,2 NNW 14,5 1011,7 85 -
08:24 -0,7 -3,1 4,7 ENE 24,1 1011,7 84 -
08:28 -0,6 -3,1 19,5 NE 20,9 1011,7 83 -
08:34 -0,3 -3,0 9,7 NE 20,9 1011,7 82 -
08:38 -0,3 -3,2 19,5 ENE 29,0 1011,7 81 -
08:44 -0,2 -3,2 13,0 NNE 19,3 1011,7 80 -
08:48 -0,2 -3,2 22,7 ENE 22,5 1011,7 80 -
08:54 -0,1 -3,3 19,5 NE 22,5 1011,7 79 -
08:58 -0,1 -3,3 19,5 NNE 24,1 1011,7 79 -
09:04 0,0 -3,4 19,5 NE 22,5 1011,7 78 -
09:08 0,1 -3,3 4,7 North 17,7 1011,7 78 -
09:14 0,1 -3,5 24,1 NNE 27,4 1011,7 77 -
09:18 0,2 -3,4 16,3 NNE 19,3 1011,7 77 -
09:24 0,2 -3,4 7,9 ENE 16,1 1011,7 77 -
09:28 0,2 -3,5 19,5 NNE 20,9 1011,7 76 -
09:34 0,3 -3,3 16,3 NNE 16,1 1011,7 77 -
09:38 0,3 -3,4 6,4 North 17,7 1011,7 76 -
09:44 0,4 -3,5 11,1 North 16,1 1011,7 75 -
09:48 0,4 -3,5 19,5 NE 22,5 1011,7 75 -
09:54 0,5 -3,4 6,4 ENE 16,1 1011,7 75 -
09:58 0,6 -3,5 17,7 NNE 17,7 1011,7 74 -
10:04 0,6 -3,7 16,3 ENE 17,7 1011,7 73 -
10:08 0,7 -3,4 22,7 NE 22,5 1011,4 74 -
10:14 0,7 -3,4 7,9 ENE 22,5 1011,7 74 -
10:18 0,8 -3,3 13,0 NE 19,3 1011,4 74 -
10:24 0,9 -3,4 19,5 North 20,9 1011,4 73 -
10:28 1,0 -3,3 6,4 NNW 19,3 1011,4 73 -
10:32 1,1 -3,4 17,7 NE 24,1 1011,4 72 -
10:39 1,1 -3,6 7,9 NW 24,1 1011,4 71 -
10:43 1,2 -3,5 7,9 ENE 20,9 1011,4 71 -
10:49 1,3 -3,4 9,7 NE 16,1 1011,4 71 -
10:53 1,3 -3,6 13,0 ENE 16,1 1011,4 70 -
10:59 1,4 -3,5 13,0 NNE 19,3 1011,4 70 -
11:03 1,4 -3,3 6,4 NNE 14,5 1011,4 71 -
11:09 1,4 -3,7 14,3 NNE 20,9 1011,1 69 -
11:13 1,4 -3,7 20,9 NE 25,7 1011,1 69 -
11:19 1,4 -3,9 7,9 ENE 20,9 1011,1 68 -
11:23 1,6 -3,5 4,7 NE 17,7 1010,7 69 -
11:29 1,6 -3,5 3,2 NNE 17,7 1010,7 69 -
11:33 1,7 -3,4 3,2 ENE 16,1 1010,7 69 -
11:39 1,8 -3,3 11,1 ENE 20,9 1010,7 69 -
11:43 1,9 -3,2 13,0 NE 20,9 1010,7 69 -
11:49 1,9 -3,2 3,2 ENE 17,7 1010,7 69 -
11:53 2,0 -3,3 11,1 NE 22,5 1010,4 68 -
11:59 2,2 -3,3 6,4 NNE 19,3 1010,4 67 -
12:03 2,2 -3,1 14,3 NNE 16,1 1010,0 68 -
12:09 2,3 -3,2 14,3 NNE 24,1 1010,0 67 -
12:13 2,4 -2,9 13,0 NNE 16,1 1010,0 68 -
12:19 2,6 -2,7 3,2 North 19,3 1010,0 68 -
12:23 2,8 -2,5 6,4 NE 19,3 1010,0 68 -
12:29 2,8 -2,7 14,3 NNE 19,3 1009,7 67 -
12:33 2,8 -2,5 16,3 North 19,3 1009,7 68 -
12:39 2,8 -2,9 20,9 NE 27,4 1009,7 66 -
12:43 2,8 -2,5 1,4 North 19,3 1009,7 68 -
12:49 2,9 -2,6 13,0 NNE 29,0 1009,7 67 -
12:53 2,9 -2,6 14,3 ENE 22,5 1009,7 67 -
12:59 2,9 -2,6 6,4 NNE 20,9 1009,4 67 -
13:03 3,1 -2,4 13,0 NE 25,7 1009,4 67 -
13:09 3,2 -2,1 6,4 NE 19,3 1009,4 68 -
13:13 3,2 -2,1 17,7 ENE 27,4 1009,4 68 -
13:19 3,2 -2,1 20,9 NE 30,6 1009,0 68 -
13:23 3,2 -2,5 28,8 ENE 29,0 1009,0 66 -
13:29 3,2 -2,3 17,7 NNE 33,8 1009,0 67 -
13:33 3,3 -1,8 24,1 North 27,4 1009,0 69 -
13:39 3,4 -1,7 17,7 NE 27,4 1009,0 69 -
13:43 3,4 -1,7 24,1 ENE 30,6 1009,0 69 -
13:49 3,3 -2,2 28,8 ENE 32,2 1009,0 67 -
13:53 3,4 -1,7 24,1 NE 29,0 1009,0 69 -
13:59 3,6 -1,8 20,9 NE 30,6 1008,7 68 -
14:03 3,7 -1,7 24,1 NE 29,0 1008,7 68 -
14:09 3,8 -1,4 6,4 North 25,7 1008,7 69 -
14:13 3,8 -1,6 28,8 NE 29,0 1008,7 68 -
14:19 3,8 -1,4 24,1 NE 29,0 1008,4 69 -
14:23 3,8 -1,6 19,5 NE 27,4 1008,7 68 -
14:29 3,9 -1,3 16,3 NE 27,4 1008,4 69 -
14:33 3,9 -1,5 24,1 ENE 33,8 1008,4 68 -
14:39 3,9 -1,5 22,7 NE 25,7 1008,4 68 -
14:43 3,9 -1,3 22,7 NNE 37,0 1008,4 69 -
14:49 3,9 -1,3 27,4 NNE 33,8 1008,4 69 -
14:53 4,0 -1,0 16,3 NE 32,2 1008,4 70 -
14:59 4,1 -1,1 28,8 NE 43,5 1008,0 69 -
15:03 4,1 -0,9 13,0 NE 30,6 1008,0 70 -
15:09 4,1 -1,1 16,3 NE 29,0 1008,0 69 -
15:13 4,3 -0,9 9,7 ENE 25,7 1008,0 69 -
15:19 4,4 -0,8 22,7 NE 29,0 1008,0 69 -
15:23 4,4 -1,0 19,5 NE 25,7 1008,0 68 -
15:29 4,4 -1,0 19,5 ENE 29,0 1008,0 68 -
15:33 4,4 -1,0 11,1 NE 22,5 1008,0 68 -
15:39 4,4 -1,0 17,7 NE 25,7 1007,7 68 -
15:43 4,4 -1,0 14,3 NE 20,9 1007,7 68 -
15:49 4,3 -1,1 14,3 NE 17,7 1007,7 68 -
15:53 4,3 -0,9 14,3 NE 17,7 1007,7 69 -
15:59 4,3 -0,9 9,7 NE 19,3 1007,3 69 -
16:03 4,3 -0,9 13,0 NNE 19,3 1007,3 69 -
16:09 4,3 -0,9 6,4 North 19,3 1007,3 69 -
16:13 4,3 -1,1 9,7 NE 22,5 1007,3 68 -
16:19 4,4 -0,8 14,3 NNE 14,5 1007,3 69 -
16:23 4,4 -0,8 9,7 NE 19,3 1007,3 69 -
16:29 4,3 -0,9 17,7 NNE 25,7 1007,3 69 -
16:33 4,3 -0,7 16,3 NE 22,5 1007,3 70 -
16:39 4,3 -0,7 17,7 North 22,5 1007,3 70 -
16:43 4,2 -0,8 14,3 NNW 25,7 1007,3 70 -
16:49 4,2 -0,8 7,9 NE 30,6 1007,3 70 -
16:53 4,1 -0,9 17,7 NNE 29,0 1007,3 70 -
16:59 4,1 -0,9 17,7 NE 27,4 1007,3 70 -
17:03 4,1 -0,9 11,1 NNE 25,7 1007,0 70 -
17:09 4,1 -0,7 11,1 NNE 17,7 1007,0 71 -
17:13 4,0 -0,8 4,7 West 14,5 1007,3 71 -
17:19 3,9 -0,7 24,1 North 24,1 1007,0 72 -
17:23 3,9 -0,7 17,7 NNE 27,4 1007,0 72 -
17:29 3,9 -0,5 3,2 NW 22,5 1007,0 73 -
17:33 3,8 -0,6 17,7 NE 20,9 1006,7 73 -
17:39 3,8 -0,4 11,1 NE 19,3 1006,7 74 -
17:43 3,8 -0,4 16,3 NNE 22,5 1006,7 74 -
17:49 3,8 -0,4 14,3 NNE 17,7 1006,7 74 -
17:53 3,7 -0,5 9,7 NNE 22,5 1006,3 74 -
17:59 3,7 -0,5 19,5 NNE 20,9 1006,3 74 -
18:03 3,8 -0,4 7,9 ENE 22,5 1006,3 74 -
18:09 3,7 -0,3 4,7 East 16,1 1006,3 75 -
18:13 3,8 -0,2 11,1 NE 19,3 1006,3 75 -
18:19 3,8 -0,2 9,7 NNE 24,1 1006,3 75 -
18:23 3,8 -0,2 14,3 NNE 17,7 1006,3 75 -
18:29 3,7 -0,1 4,7 NNE 24,1 1006,3 76 -
18:33 3,7 -0,1 7,9 NE 20,9 1006,3 76 -
18:39 3,7 0,0 3,2 ENE 14,5 1006,3 77 -
18:43 3,7 0,2 7,9 North 12,9 1006,3 78 -
18:49 3,6 0,1 19,5 NNE 19,3 1006,0 78 -
18:53 3,6 0,1 14,3 NE 27,4 1006,0 78 -
18:57 3,6 0,1 13,0 NNE 20,9 1006,0 78 -
19:03 3,7 0,2 11,1 NE 16,1 1006,0 78 -
19:09 3,6 0,1 6,4 NE 14,5 1006,0 78 -
19:13 3,6 0,1 4,7 North 16,1 1006,0 78 -
19:19 3,6 0,1 16,3 NE 16,1 1005,6 78 -
19:23 3,6 0,3 11,1 NE 19,3 1005,6 79 -
19:29 3,4 0,4 9,7 NE 9,7 1006,0 81 -
19:33 3,3 0,5 1,4 NE 6,4 1005,6 82 -
19:37 3,2 0,6 7,9 NE 9,7 1005,6 83 -
19:43 3,1 0,7 3,2 NNE 6,4 1005,6 84 -
19:49 3,1 0,7 1,4 NE 6,4 1005,6 84 -
19:53 3,1 0,7 4,7 NE 19,3 1005,6 84 -
19:57 3,2 0,6 14,3 NE 14,5 1005,6 83 -
20:03 3,3 0,7 3,2 NE 16,1 1005,6 83 -
20:09 3,3 0,5 9,7 NNE 16,1 1005,6 82 -
20:14 3,3 0,7   Calm 9,7 1005,3 83 -
20:18 3,3 0,7 3,2 NE 12,9 1005,3 83 -
20:24 3,3 0,7 3,2 NE 9,7 1005,3 83 -
20:28 3,3 0,7 4,7 NE 12,9 1005,3 83 -
20:34 3,2 0,8 4,7 NNE 12,9 1005,3 84 -
20:38 3,2 0,8 1,4 North 8,0 1005,0 84 -
20:44 3,2 0,8 7,9 NNE 11,3 1005,0 84 -
20:48 3,2 0,8 11,1 NNE 14,5 1005,0 84 -
20:54 3,2 0,8 11,1 NNE 19,3 1005,0 84 -
20:58 3,2 0,8 14,3 NNE 14,5 1005,0 84 -
21:04 3,2 0,8 13,0 NE 14,5 1005,0 84 -
21:08 3,2 0,6 6,4 NNE 19,3 1004,6 83 -
21:14 3,2 0,6 19,5 NE 19,3 1004,6 83 -
21:18 3,3 0,7 11,1 NNE 20,9 1004,6 83 -
21:24 3,2 0,6 7,9 NE 19,3 1004,6 83 -
21:28 3,2 0,6 4,7 NE 16,1 1004,6 83 -
21:34 3,2 0,6 6,4 ENE 17,7 1004,6 83 -
21:38 3,2 0,6 9,7 NW 16,1 1004,6 83 -
21:44 3,2 0,6 4,7 NE 11,3 1004,6 83 -
21:48 3,1 0,5 11,1 NNE 16,1 1004,6 83 -
21:54 3,1 0,5 4,7 NE 16,1 1004,6 83 -
21:58 3,1 0,5 9,7 NE 12,9 1004,6 83 -
22:04 3,1 0,5 11,1 NNE 20,9 1004,3 83 -
22:08 3,1 0,3 3,2 NE 16,1 1004,3 82 -
22:14 3,1 0,3 6,4 NE 22,5 1004,3 82 -
22:18 3,1 0,3 20,9 NE 20,9 1004,3 82 -
22:24 3,1 0,3 7,9 NNE 17,7 1004,3 82 -
22:28 3,1 0,3 6,4 NE 19,3 1004,3 82 -
22:34 3,0 0,4 7,9 ENE 12,9 1004,3 83 -
22:38 2,9 0,3 7,9 NE 17,7 1004,3 83 -
22:44 2,9 0,3 6,4 NNE 11,3 1004,3 83 -
22:48 2,9 0,3 7,9 NE 16,1 1003,9 83 -
22:54 2,9 0,3 9,7 NE 12,9 1003,9 83 -
22:58 2,9 0,3 9,7 ENE 12,9 1003,9 83 -
23:04 2,9 0,3 11,1 NE 12,9 1003,9 83 -
23:08 2,9 0,3 7,9 NE 11,3 1003,9 83 -
23:14 2,8 0,2 7,9 NE 17,7 1003,9 83 -
23:18 2,8 0,0 3,2 ENE 22,5 1003,9 82 -
23:24 2,8 0,0 13,0 NE 19,3 1003,9 82 -
23:28 2,8 0,2 6,4 NE 12,9 1003,9 83 -
23:34 2,8 0,2 7,9 NE 9,7 1003,9 83 -
23:38 2,8 0,2 13,0 NNE 14,5 1003,9 83 -
23:44 2,8 0,2 11,1 NE 22,5 1003,9 83 -

Download your copy of this data-set  here

Our weather-data as stored at Weather Underground. Script developed by Jim McMurry. Adapted for the template by Leuven-Template.eu

You find our weather info also at:

Weather Underground

Equipment we use:

Weather-station
Davis Vue

Weather-program
Meteobridge

Weather-server
Raspberry PI 2 B+

Provider
1 and 1

Davis Vue

Meteobridge

Raspberry PI 2 B+

1 and 1